Content
SEND FEEDBACK

Daily
Averages
Monthly
Summary
United States of America

CORAL SPRINGS, FLORIDA


Home > North America > United States > Florida
Elevation: 3 meters     Latitude: 26 14N     Longitude: 080 09W

WEATHER
 
SELECT A DAY
Number of Records: 167,364;   Date Range: 1/1/95 - 9/16/14
 
SHARE

PRINT THIS DATA

[ ← Previous Day ]
WEATHER ALMANAC - 31 JANUARY, 2013
[ Next Day → ]
[ °F ]   °C
Weather ElementAverageHighLow
Temperature19.2 °C22.2 °C (1:53 am)15 °C (11:53 pm)
Dewpoint15.2 °C22.2 °C (7:53 am)3.3 °C (10:53 pm)
Humidity79.8 %100 % (4:53 am)42 % (10:53 pm)
Barometer1018.6 hPa1022.4 hPa (10:53 pm)1014.9 hPa (4:53 am)
Wind Speed16.3 km/h37 km/h (8:34 am)
Wind Gust51.8 km/h (8:34 am)
Weather ElementAverage
Visibility15.9 km
Wind DirectionWNW (285.5 °)

Weather ElementTotal
Precipitation---
Cooling Degree Days0.3 (Base 18.3)
Growing Degree Days8.6 (Base 10)
Averaged from 29 records on 31 January, 2013
WEATHER CONDITIONS BREAKOUT
WIND DIRECTION BREAKOUT
WEATHER BY HOUR - 31 JANUARY, 2013
[ °F ]   °C
Local TimeTemperatureDewpointHumidityBarometerVisibilityWind DirectionWind SpeedGust SpeedPrecipitationEventsConditions
1:53 AM22.2 °C21.1 °C93 %1015.9 hPa16.1 kmSSW (200°)7.4 km/hClear
2:53 AM21.7 °C21.1 °C96 %1015.6 hPa16.1 kmSouth (190°)5.6 km/hClear
3:53 AM21.7 °C21.1 °C96 %1015.2 hPa16.1 kmSW (220°)7.4 km/hClear
4:53 AM21.1 °C21.1 °C100 %1014.9 hPa16.1 kmSouth (180°)7.4 km/hClear
5:53 AM21.7 °C21.7 °C100 %1015.6 hPa16.1 kmSSW (210°)5.6 km/hClear
6:53 AM21.7 °C21.7 °C100 %1015.9 hPa14.5 kmSSW (200°)5.6 km/hClear
7:53 AM22.2 °C22.2 °C100 %1016.6 hPa14.5 kmSSW (210°)9.3 km/hPartly Cloudy
8:34 AM20 °C19 °C94 %1017.9 hPa14.5 kmNW (320°)37 km/h51.8 km/hMostly Cloudy
8:46 AM19 °C18 °C94 %1018.6 hPa16.1 kmNW (320°)29.6 km/h38.9 km/h0 mmRainLight Rain
8:53 AM18.3 °C17.8 °C97 %1018.6 hPa16.1 kmNW (320°)22.2 km/h38.9 km/h0 mmRainLight Rain
9:07 AM18 °C18 °C100 %1019 hPa16.1 kmNW (320°)18.5 km/h0 mmRainLight Rain
9:14 AM18 °C18 °C100 %1019.3 hPa16.1 kmNW (320°)25.9 km/h35.2 km/h0 mmOvercast
9:53 AM18.3 °C16.1 °C87 %1019.6 hPa16.1 kmNW (310°)24.1 km/h0 mmOvercast
10:00 AM18 °C16 °C88 %1019.3 hPa16.1 kmNW (320°)24.1 km/hMostly Cloudy
10:49 AM19 °C16 °C83 %1020 hPa16.1 kmNNW (330°)22.2 km/hOvercast
10:53 AM18.9 °C15.6 °C81 %1020 hPa16.1 kmNNW (330°)24.1 km/hOvercast
11:07 AM19 °C16 °C83 %1020 hPa16.1 kmNW (320°)18.5 km/hOvercast
11:53 AM20 °C15 °C73 %1019.6 hPa16.1 kmNW (320°)18.5 km/hOvercast
12:53 PM18.9 °C14.4 °C75 %1019.3 hPa16.1 kmNNW (330°)18.5 km/hOvercast
1:53 PM18.9 °C11.1 °C60 %1018.6 hPa16.1 kmNNW (330°)14.8 km/hOvercast
2:53 PM19.4 °C11.7 °C61 %1018.3 hPa16.1 kmNW (320°)20.4 km/hOvercast
3:53 PM18.3 °C12.2 °C68 %1018.6 hPa16.1 kmNNW (340°)13 km/hOvercast
4:53 PM18.9 °C9.4 °C54 %1019.6 hPa16.1 kmNNW (330°)16.7 km/hOvercast
5:53 PM18.3 °C10 °C58 %1020 hPa16.1 kmNorth (10°)9.3 km/hScattered Clouds
7:53 PM17.8 °C10.6 °C63 %1021 hPa16.1 kmNW (320°)5.6 km/hClear
8:53 PM17.8 °C11.1 °C65 %1021.3 hPa16.1 kmNNW (340°)9.3 km/hClear
9:53 PM17.2 °C8.3 °C56 %1022 hPa16.1 kmNNW (340°)16.7 km/hClear
10:53 PM16.1 °C3.3 °C42 %1022.4 hPa16.1 kmNNW (340°)18.5 km/hClear
11:53 PM15 °C3.3 °C46 %1021.7 hPa16.1 kmNNW (340°)14.8 km/hClear
Hourly data recorded from KPMP, located 0 kilometers away from Coral Springs, Florida







STORIES FROM OUR PARTNERS